Orbital Elements at Epoch 2459200.5 (2020-Dec-17.0) TDB
Reference: JPL 24 (heliocentric ecliptic J2000)
Element | Value | Uncertainty (1-sigma) | Units |
e | .09521886408991809 | 4.3666e-08 | |
a | 3.015257840889149 | 2.0556e-08 | au |
q | 2.728148414341465 | 1.3731e-07 | au |
i | 12.44557145971813 | 3.9836e-06 | deg |
node | 76.63569662975615 | 2.0614e-05 | deg |
peri | 312.1088160968576 | 3.1529e-05 | deg |
M | 357.4493275360356 | 2.1042e-05 | deg |
tp | 2459214.049937844411 (2020-Dec-30.54993784) | 0.00011175 | TDB |
period | 1912.428072558705 5.24 | 1.9557e-05 5.354e-08 | d yr |
n | .188242373747601 | 1.925e-09 | deg/d |
Q | 3.302367267436833 | 2.2513e-08 | au |
|
| | Orbit Determination Parameters
Additional Information
|